#timestamp,LO_Frequency,Hit,StdDev 
1509350415.8,286046997.2,N
1509350435.7,286046998.0,N
1509350455.5,286046998.0,N
1509350475.3,286046996.1,N
1509350495.2,286046995.4,N
1509350515.0,286046997.6,N
1509350515.9,286046997.6,N
1509350535.8,286046994.9,Y
1509350555.6,286046998.2,P
1509350575.4,286046998.5,P
1509350595.3,286047002.3,P
1509350615.1,286047002.3,N
1509350635.8,286047002.8,N
1509350655.7,286047000.1,N
1509350675.5,286047000.3,N
1509350695.4,286046998.5,N
1509350715.2,286047001.1,N
1509350735.0,286046999.7,N
1509350735.9,286046999.7,N
1509350755.8,286047002.7,N
1509350775.6,286047002.3,N
1509350795.4,286047000.1,N
1509350815.3,286047002.5,N
1509350835.1,286047002.1,N
1509350855.9,286047002.5,N
1509350875.7,286047000.0,N
1509350895.5,286047000.4,N
1509350915.4,286047002.3,N
1509350935.2,286046998.9,N
1509350955.0,286047000.8,N
1509350956.0,286047000.8,N
1509350975.8,286047000.5,N
1509350995.6,286047000.2,N
1509351015.5,286047000.5,N
1509351035.3,286047001.9,N
1509351055.1,286047001.5,N
1509351075.9,286047004.0,N
1509351095.7,286047003.5,N
1509351115.6,286047001.8,N
1509351135.4,286047001.4,N
1509351155.2,286046999.7,N
1509351175.1,286046998.1,N
1509351176.0,286046998.1,N
1509351195.8,286046998.1,N
1509351215.7,286047000.5,N
1509351235.5,286047002.8,N
1509351255.3,286047001.6,N
1509351275.2,286047002.6,N
1509351295.0,286047001.7,N
1509351295.9,286047001.7,N
1509351315.7,286047004.3,N
1509351335.6,286047002.4,N
1509351355.4,286047000.7,N
1509351375.3,286047000.4,N
1509351395.1,286047001.9,N
1509351415.8,286047004.4,N
1509351435.7,286047001.5,N
1509351455.5,286047002.8,N
1509351475.4,286046999.9,N
1509351495.2,286047000.2,N
1509351515.0,286047000.2,N
1509351515.9,286047000.2,N
1509351535.8,286047002.0,N
1509351555.6,286047002.8,N
1509351575.4,286047000.9,N
1509351595.3,286047000.9,N
1509351615.1,286047001.1,N
1509351635.9,286046998.5,N
1509351655.7,286046999.9,N
1509351675.5,286047004.4,N
1509351695.4,286047003.8,N
1509351715.2,286047003.8,N
1509351735.0,286047002.1,N
1509351735.9,286047002.1,N
1509351755.8,286047000.5,N
1509351775.6,286046998.6,N
1509351795.5,286047000.5,N
1509351815.3,286046998.4,N
1509351835.1,286046998.8,N
1509351855.9,286046999.3,N
1509351875.7,286046997.8,N
1509351895.5,286046995.0,N
1509351915.4,286046994.9,N
1509351935.2,286046997.7,N
1509351955.1,286046999.4,N
1509351956.0,286046999.4,N
1509351975.8,286046998.1,N
1509351995.6,286046999.9,N
1509352015.5,286046999.4,N
1509352035.3,286046998.9,N
1509352055.1,286046999.1,N
1509352075.9,286046998.4,N
1509352095.7,286046999.1,N
1509352115.6,286046998.3,N
1509352135.4,286046998.3,N
1509352155.2,286046998.7,N
1509352175.1,286046998.5,N
1509352176.0,286046998.5,N
1509352195.8,286046996.8,N
1509352215.7,286046997.3,N
1509352235.5,286046998.9,N
1509352255.3,286046996.9,N
1509352275.2,286046997.1,N
1509352295.9,286046997.0,N
1509352315.7,286046999.4,N
1509352335.6,286046999.5,N
1509352355.4,286046997.0,N
1509352375.2,286046997.9,N
1509352395.1,286046995.6,Y
1509352396.0,286046995.6,P
1509352415.8,286046996.6,N
1509352435.7,286046998.9,N
1509352455.5,286046998.8,N
1509352475.3,286046998.2,N
1509352495.2,286046998.9,N
1509352515.0,286046999.3,N
1509352515.9,286046999.3,N
1509352535.8,286046996.5,N
1509352555.6,286046996.9,N
1509352575.4,286046998.2,N
1509352595.3,286046996.8,N
1509352615.1,286046997.3,N
1509352635.9,286046996.7,N
1509352655.7,286046999.1,N
1509352675.5,286047000.8,N
1509352695.4,286046998.1,N
1509352715.2,286047002.5,N
1509352735.0,286047001.1,N
1509352735.9,286047001.1,N
1509352755.8,286047000.2,N
1509352775.6,286047002.7,N
1509352795.5,286047002.7,N
1509352815.3,286047001.8,N
1509352835.1,286047002.2,N
1509352855.9,286047000.2,N
1509352875.7,286047001.0,N
1509352895.6,286046999.9,N
1509352915.4,286047000.3,N
1509352935.2,286047002.7,N
1509352955.1,286047000.4,N
1509352956.0,286047000.4,N
1509352975.8,286047000.1,N
1509352995.7,286047000.7,N
1509353015.5,286046998.4,N
1509353035.3,286047000.7,N
1509353055.2,286047001.1,N
1509353075.0,286047000.6,N
1509353075.9,286047000.6,N
1509353095.8,286046998.5,N
1509353115.6,286046998.2,N
1509353135.4,286047000.6,N
1509353155.3,286047002.5,N
1509353175.1,286047002.6,N
1509353195.9,286047002.0,N
1509353215.7,286047002.5,N
1509353235.5,286046999.8,N
1509353255.4,286047002.8,N
1509353275.2,286046999.7,N
1509353295.0,286047000.1,N
1509353295.9,286047000.1,N
1509353315.8,286047001.9,N
1509353335.6,286047002.6,N
1509353355.5,286047001.5,N
1509353375.3,286047001.8,N
1509353395.1,286047002.5,N
1509353415.9,286047002.1,N
1509353435.7,286047001.7,N
1509353455.5,286047003.0,N
1509353475.4,286047003.8,N
1509353495.2,286047004.1,N
1509353515.0,286047003.3,N
1509353516.0,286047003.3,N
1509353535.8,286047003.9,N
1509353555.6,286047003.2,N
1509353575.5,286047004.1,N
1509353595.3,286047003.4,N
1509353615.1,286047007.4,Y
1509353635.9,286047003.5,P
1509353655.7,286047001.4,N
1509353675.6,286047001.8,N
1509353695.4,286047002.7,Y
1509353715.2,286046999.7,P
1509353735.1,286047000.2,N
1509353736.0,286047000.2,N
1509353755.8,286046999.3,N
1509353775.6,286046999.3,N
1509353795.5,286047001.2,N
1509353815.3,286046998.6,N
1509353835.2,286046997.4,N
1509353855.9,286046996.5,N
1509353875.7,286046996.5,N
1509353895.6,286046999.0,N
1509353915.4,286046998.3,N
1509353935.2,286047000.8,N
1509353955.1,286046998.5,N
1509353956.0,286046998.5,N
1509353975.8,286046998.3,N
1509353995.7,286047011.9,Y
